Waarnemingen

Advertentie
Mijn weer
Topcliffe, Groot Brittannië (3265): temperatuur & dauwpunt: 11.02.2019 12:00:00 - 17.02.2019 12:00:00 (GMT)Topcliffe, Groot Brittannië (3265): windsnelheid & windstoten: 11.02.2019 12:00:00 - 17.02.2019 12:00:00 (GMT)Topcliffe, Groot Brittannië (3265): windrichting: 11.02.2019 12:00:00 - 17.02.2019 12:00:00 (GMT)Topcliffe, Groot Brittannië (3265): luchtdruk: 11.02.2019 12:00:00 - 17.02.2019 12:00:00 (GMT)Topcliffe, Groot Brittannië (3265): zicht: 11.02.2019 12:00:00 - 17.02.2019 12:00:00 (GMT)Topcliffe, Groot Brittannië (3265): neerslag: 11.02.2019 12:00:00 - 17.02.2019 12:00:00 (GMT)
Datum & Tijd tt [°C] td [°C] ff [km/u] ff [kn] fx [km/u] fx [kn] dd ppp [hPa] vv [km] rr [mm]
17.02.2019 12:00:00 9,6 6,7 22 12 - - ZZO 1009,6 11 -
17.02.2019 11:00:00 9,0 6,9 24 13 - - ZZO 1009,9 11 -
17.02.2019 10:00:00 8,4 7,1 22 12 - - ZO 1010,0 9 0,0
17.02.2019 09:00:00 7,6 6,9 29 16 - - ZO 1010,4 6 0,0
17.02.2019 08:00:00 7,1 6,7 22 12 - - OZO 1011,2 5 0,0
17.02.2019 07:00:00 7,0 6,3 29 16 - - ZO 1011,7 9 0,0
17.02.2019 06:00:00 6,8 6,3 22 12 - - ZO 1012,3 9 0,0
17.02.2019 05:00:00 6,3 5,7 16 9 - - ZO 1012,8 9 0,0
17.02.2019 04:00:00 7,5 6,6 21 11 - - ZO 1013,3 12 0,0
17.02.2019 03:00:00 7,3 6,3 21 11 - - OZO 1014,0 13 0,0
17.02.2019 02:00:00 8,6 7,4 21 11 - - OZO 1014,5 13 0,0
17.02.2019 01:00:00 9,1 7,9 18 10 - - ZO 1014,7 16 0,0
17.02.2019 00:00:00 10,5 8,9 26 14 - - ZZO 1015,1 15 0,0
16.02.2019 23:00:00 10,6 8,6 24 13 - - ZZO 1015,6 18 0,0
16.02.2019 22:00:00 10,5 8,2 18 10 - - ZZO 1016,1 20 0,0
16.02.2019 21:00:00 10,2 7,2 22 12 - - Z 1016,3 30 0,0
16.02.2019 20:00:00 10,3 6,7 18 10 - - ZZO 1016,5 40 0,0
16.02.2019 19:00:00 10,3 6,4 18 10 - - ZO 1016,8 35 0,0
16.02.2019 18:00:00 10,3 6,2 16 9 - - Z 1016,7 40 0,0
16.02.2019 17:00:00 9,6 4,6 16 9 - - Z 1016,9 28 0,0
16.02.2019 16:00:00 12,4 5,2 21 11 - - ZZW 1017,1 35 0,0
16.02.2019 15:00:00 12,2 4,8 26 14 - - ZZW 1017,6 50 0,0
16.02.2019 14:00:00 12,7 4,6 26 14 - - ZW 1018,0 30 0,0
16.02.2019 13:00:00 12,1 5,0 28 15 - - ZW 1018,7 35 0,0
16.02.2019 12:00:00 11,6 5,3 18 10 - - WZW 1019,0 21 0,0
16.02.2019 11:00:00 11,7 6,2 26 14 - - ZW 1018,6 35 0,0
16.02.2019 10:00:00 10,3 5,6 24 13 - - ZW 1018,5 30 0,0
16.02.2019 09:00:00 8,9 5,8 21 11 - - ZZW 1018,6 35 0,0
16.02.2019 08:00:00 8,6 5,8 15 8 - - ZW 1018,2 25 0,0
16.02.2019 07:00:00 8,0 5,7 9 5 - - ZZO 1017,9 26 0,0
16.02.2019 06:00:00 7,6 5,3 9 5 - - Z 1017,7 15 0,0
16.02.2019 05:00:00 9,8 6,2 15 8 - - WZW 1017,6 22 0,0
16.02.2019 04:00:00 7,4 6,1 5 3 - - ZZO 1017,2 18 0,0
16.02.2019 03:00:00 7,0 5,1 11 6 - - O 1016,8 11 0,0
16.02.2019 02:00:00 6,7 5,1 13 7 - - OZO 1016,8 13 0,0
16.02.2019 01:00:00 6,3 4,9 18 10 - - ZO 1017,3 11 0,0
16.02.2019 00:00:00 5,0 4,6 13 7 - - ZO 1017,8 12 0,0
15.02.2019 23:00:00 4,7 3,3 16 9 - - OZO 1018,1 10 0,0
15.02.2019 22:00:00 6,0 3,9 21 11 - - ZZO 1018,6 15 0,0
15.02.2019 21:00:00 5,0 3,2 21 11 - - ZO 1019,1 11 0,0
15.02.2019 20:00:00 5,2 3,5 18 10 - - ZO 1019,6 10 0,0
15.02.2019 19:00:00 6,1 4,1 21 11 - - ZZO 1020,0 11 0,0
15.02.2019 18:00:00 7,2 3,8 18 10 - - ZO 1020,1 13 0,0
15.02.2019 17:00:00 10,9 4,5 16 9 - - Z 1020,0 17 0,0
15.02.2019 16:00:00 12,1 6,5 11 6 - - ZZO 1020,5 15 0,0
15.02.2019 15:00:00 11,9 6,4 18 10 - - ZZO 1021,1 12 0,0
15.02.2019 14:00:00 10,5 5,7 26 14 - - ZZO 1021,9 11 0,0
15.02.2019 13:00:00 9,3 4,7 22 12 - - ZO 1022,8 10 0,0
15.02.2019 12:00:00 7,4 4,2 21 11 - - ZO 1023,7 11 0,0
15.02.2019 11:00:00 5,4 3,1 18 10 - - ZZO 1024,2 9 0,0
15.02.2019 10:00:00 3,5 1,8 15 8 - - ZZO 1024,9 8 0,2
15.02.2019 09:00:00 1,8 0,9 15 8 - - ZO 1025,3 7 0,0
15.02.2019 08:00:00 0,2 -0,2 8 4 - - ZO 1025,5 6 0,0
15.02.2019 07:00:00 0,4 0,1 22 12 - - ZO 1025,5 6 0,0
15.02.2019 06:00:00 -0,3 -0,5 13 7 - - ZO 1025,8 4,4 0,0
15.02.2019 05:00:00 -0,1 -0,3 18 10 - - ZO 1026,1 2,8 0,0
15.02.2019 04:00:00 0,7 0,5 15 8 - - OZO 1026,2 3,9 0,0
15.02.2019 03:00:00 -0,9 -1,2 11 6 - - ZO 1026,8 0,5 0,0
15.02.2019 02:00:00 1,1 1,0 13 7 - - ZO 1027,1 4,0 0,0
15.02.2019 01:00:00 0,1 -0,6 11 6 - - ZO 1027,7 3,2 0,0
15.02.2019 00:00:00 1,4 0,7 16 9 - - ZO 1028,0 5 0,0
14.02.2019 23:00:00 2,0 1,2 15 8 - - ZO 1028,2 5 0,0
14.02.2019 22:00:00 1,9 1,0 9 5 - - ZO 1028,2 7 0,0
14.02.2019 21:00:00 2,2 1,1 15 8 - - OZO 1028,4 7 0,0
14.02.2019 20:00:00 3,6 2,0 11 6 - - ZO 1028,5 10 0,0
14.02.2019 19:00:00 3,4 1,4 13 7 - - OZO 1028,6 6 0,0
14.02.2019 18:00:00 5,2 3,7 16 9 - - ZO 1028,6 9 0,0
14.02.2019 17:00:00 7,2 3,8 13 7 - - ZO 1028,6 11 0,0
14.02.2019 16:00:00 10,4 4,7 21 11 - - ZZO 1028,7 21 0,0
14.02.2019 15:00:00 11,7 4,7 13 7 - - ZO 1028,8 30 0,0
14.02.2019 14:00:00 10,7 5,3 15 8 - - ZO 1029,2 21 0,0
14.02.2019 13:00:00 9,8 4,8 18 10 - - ZO 1029,7 35 0,0
14.02.2019 12:00:00 8,9 4,8 16 9 - - ZZO 1030,5 18 0,0
14.02.2019 11:00:00 8,2 5,5 15 8 - - Z 1030,8 20 0,0
14.02.2019 10:00:00 5,4 4,4 16 9 - - ZO 1031,0 7 0,0
14.02.2019 09:00:00 3,3 2,4 18 10 - - OZO 1030,9 4,6 0,0
14.02.2019 08:00:00 2,2 1,9 16 9 - - Z 1030,6 5 0,0
14.02.2019 07:00:00 3,8 3,2 15 8 - - Z 1030,2 8 0,0
14.02.2019 06:00:00 4,0 3,3 13 7 - - ZZO 1029,9 8 0,0
14.02.2019 05:00:00 3,5 2,6 15 8 - - ZZO 1029,7 9 0,0
14.02.2019 04:00:00 4,9 4,0 16 9 - - Z 1029,6 13 0,0
14.02.2019 03:00:00 5,4 3,8 9 5 - - ZO 1029,1 13 0,0
14.02.2019 02:00:00 5,6 3,4 8 4 - - OZO 1029,0 12 0,0
14.02.2019 01:00:00 7,1 4,6 11 6 - - WZW 1028,6 18 0,0
14.02.2019 00:00:00 7,5 4,9 16 9 - - ZW 1028,4 22 0,0
13.02.2019 23:00:00 7,4 4,8 13 7 - - ZZW 1028,2 30 0,0
13.02.2019 22:00:00 6,6 4,4 15 8 - - Z 1028,1 18 0,0
13.02.2019 21:00:00 6,1 4,8 13 7 - - Z 1027,9 17 0,0
13.02.2019 20:00:00 5,8 3,4 9 5 - - ZZO 1027,8 17 0,0
13.02.2019 19:00:00 7,8 5,0 11 6 - - ZZW 1028,1 29 0,0
13.02.2019 18:00:00 7,9 4,6 13 7 - - ZZO 1028,0 30 0,0
13.02.2019 17:00:00 9,5 5,5 13 7 - - ZZO 1027,9 30 0,0
13.02.2019 16:00:00 10,2 6,1 8 4 - - ZO 1027,9 40 0,0
13.02.2019 15:00:00 10,3 5,3 11 6 - - ZZW 1028,0 40 0,0
13.02.2019 14:00:00 10,3 5,3 16 9 - - ZW 1028,4 40 0,0
13.02.2019 13:00:00 10,3 5,3 22 12 - - ZW 1028,4 50 0,0
13.02.2019 12:00:00 10,4 5,2 11 6 - - ZZW 1028,8 29 0,0
13.02.2019 11:00:00 10,0 5,4 11 6 - - ZW 1028,6 30 0,0
13.02.2019 10:00:00 9,4 5,5 21 11 50 27 ZW 1028,0 40 0,0
13.02.2019 09:00:00 9,3 5,8 29 16 - - ZW 1027,9 29 0,0
13.02.2019 08:00:00 8,9 6,2 31 17 - - ZW 1027,8 45 0,0
13.02.2019 07:00:00 9,2 6,7 21 11 - - ZZW 1027,9 45 0,0
13.02.2019 06:00:00 9,1 6,9 16 9 - - ZZW 1028,4 45 0,0
13.02.2019 05:00:00 9,3 7,0 16 9 - - ZW 1028,3 50 0,0
13.02.2019 04:00:00 9,4 7,5 21 11 - - ZZW 1028,5 45 0,0
13.02.2019 03:00:00 9,3 7,7 15 8 - - ZW 1028,9 14 0,0
13.02.2019 02:00:00 9,5 8,2 21 11 - - ZW 1029,2 11 0,0
13.02.2019 01:00:00 9,5 8,2 15 8 - - WZW 1029,3 10 0,0
13.02.2019 00:00:00 9,0 7,9 5 3 - - ZW 1028,9 35 0,0
12.02.2019 23:00:00 9,4 8,2 15 8 - - ZW 1029,3 45 0,0
12.02.2019 22:00:00 9,2 7,8 9 5 - - ZZW 1029,3 50 0,0
12.02.2019 21:00:00 9,9 8,1 9 5 - - WZW 1029,0 45 0,0
12.02.2019 20:00:00 10,1 8,1 15 8 - - ZW 1028,7 50 0,0
12.02.2019 19:00:00 10,0 7,9 13 7 - - ZZW 1028,3 45 0,0
12.02.2019 18:00:00 10,5 8,1 24 13 - - WZW 1027,8 45 0,0
12.02.2019 17:00:00 10,5 7,6 18 10 - - ZW 1027,1 40 0,0
12.02.2019 16:00:00 10,6 7,3 24 13 - - ZW 1027,2 50 0,0
12.02.2019 15:00:00 9,9 7,2 13 7 - - ZW 1027,3 50 0,0
12.02.2019 14:00:00 9,4 7,0 15 8 - - Z 1027,5 50 0,0
12.02.2019 13:00:00 10,0 6,6 31 17 48 26 ZW 1027,3 50 0,0
12.02.2019 12:00:00 9,5 6,1 21 11 - - ZZW 1027,7 26 0,0
12.02.2019 11:00:00 6,7 5,0 16 9 - - Z 1028,1 35 0,0
12.02.2019 10:00:00 4,4 3,4 9 5 - - ZZO 1028,0 14 0,0
12.02.2019 09:00:00 3,3 2,5 21 11 - - ZO 1028,1 8 0,0
12.02.2019 08:00:00 2,6 2,2 11 6 - - ZZO 1028,3 7 0,2
12.02.2019 07:00:00 1,2 0,8 18 10 - - ZZO 1028,4 5 0,0
12.02.2019 06:00:00 -0,2 -0,3 13 7 - - ZZO 1028,6 5 0,0
12.02.2019 05:00:00 -0,5 -0,7 11 6 - - ZO 1029,1 6 0,0
12.02.2019 04:00:00 -1,1 -1,4 9 5 - - OZO 1029,2 5 0,0
12.02.2019 03:00:00 -1,3 -1,7 15 8 - - ZO 1029,5 5 0,0
12.02.2019 02:00:00 0,3 0,2 18 10 - - ZZO 1029,6 9 0,0
12.02.2019 01:00:00 -2,0 -2,4 11 6 - - OZO 1030,2 10 0,0
12.02.2019 00:00:00 -2,8 -3,3 9 5 - - O 1030,3 9 0,0
11.02.2019 23:00:00 -2,5 -3,1 8 4 - - ZZO 1030,3 9 0,0
11.02.2019 22:00:00 -0,8 -1,2 4 2 - - OZO 1029,9 14 0,0
11.02.2019 21:00:00 -1,1 -2,3 8 4 - - ZO 1029,7 26 0,0
11.02.2019 20:00:00 0,8 -1,2 8 4 - - ZW 1029,6 17 0,0
11.02.2019 19:00:00 0,7 -0,8 9 5 - - ZW 1029,3 30 0,0
11.02.2019 18:00:00 2,2 -0,1 5 3 - - ZZW 1028,7 21 0,0
11.02.2019 17:00:00 5,2 2,4 8 4 - - Z 1028,0 28 0,0
11.02.2019 16:00:00 6,7 2,3 8 4 - - Z 1027,5 28 0,0
11.02.2019 15:00:00 8,3 1,8 8 4 - - W 1027,2 26 0,0
11.02.2019 14:00:00 8,5 2,5 8 4 - - W 1026,9 21 0,0
11.02.2019 13:00:00 7,8 2,8 5 3 - - WNW 1026,4 19 0,0
11.02.2019 12:00:00 6,8 2,5 13 7 - - NNW 1025,8 30 0,0

tt = temperatuur
td = dauwpunt
ff = windsnelheid
fx = windstoten
dd = windrichting
ppp = luchtdruk
vv = zicht
rr = neerslag

Weerstations in de omgeving